| time (UTC) | temp C | wind direction | speed KPH | gust KPH | rain 1hr cm | rain 24hr cm | rain mn cm | humidity % | barometer mb |
| 20260901234526 | 11 | 271 | 0.0 | 0.0 | 0.00 | 0.00 | 0.00 | 86 | 1021.4 |
| 20260901233027 | 11 | 271 | 0.0 | 0.0 | 0.00 | 0.00 | 0.00 | 86 | 1021.5 |
| 20260901231526 | 11 | 271 | 0.0 | 0.0 | 0.00 | 0.00 | 0.00 | 85 | 1021.5 |
| 20260901230049 | 12 | 0.0 | 0.0 | 0.00 | 0.00 | 0.00 | 84 | 1022.7 | |
| 20260901230030 | 11 | 271 | 0.0 | 0.0 | 0.00 | 0.00 | 0.00 | 85 | 1021.7 |
| 20260901224534 | 12 | 271 | 0.0 | 0.0 | 0.00 | 0.00 | 0.00 | 84 | 1021.6 |
| 20260901223041 | 12 | 271 | 0.0 | 0.0 | 0.00 | 0.00 | 0.00 | 84 | 1021.7 |
| 20260901221518 | 12 | 271 | 0.0 | 0.0 | 0.00 | 0.00 | 0.00 | 83 | 1021.6 |
| 20260901220140 | 12 | 0.0 | 0.0 | 0.00 | 0.00 | 0.00 | 82 | 1022.3 | |
| 20260901220019 | 12 | 271 | 0.0 | 0.0 | 0.00 | 0.00 | 0.00 | 83 | 1021.6 |
| 20260901214515 | 12 | 271 | 0.0 | 0.0 | 0.00 | 0.05 | 0.00 | 82 | 1021.5 |
| 20260901213014 | 12 | 271 | 0.0 | 0.0 | 0.00 | 0.05 | 0.00 | 81 | 1021.4 |
| 20260901211523 | 13 | 271 | 0.0 | 0.0 | 0.00 | 0.05 | 0.00 | 81 | 1021.4 |
| 20260901210230 | 13 | 0.0 | 0.0 | 0.00 | 0.05 | 0.00 | 80 | 1022.2 | |
| 20260901210017 | 13 | 271 | 0.0 | 0.0 | 0.00 | 0.05 | 0.00 | 81 | 1021.4 |
| 20260901204520 | 13 | 271 | 0.0 | 0.0 | 0.00 | 0.05 | 0.00 | 80 | 1021.2 |
| 20260901203011 | 13 | 271 | 0.0 | 0.0 | 0.00 | 0.05 | 0.00 | 79 | 1021.1 |
| 20260901201511 | 14 | 271 | 0.0 | 0.0 | 0.00 | 0.05 | 0.00 | 78 | 1021.0 |
| 20260901200057 | 15 | 0.0 | 0.0 | 0.00 | 0.05 | 0.00 | 77 | 1021.6 | |
| 20260901200032 | 14 | 271 | 0.0 | 0.0 | 0.00 | 0.05 | 0.00 | 78 | 1021.0 |
| 20260901194509 | 15 | 271 | 0.0 | 0.0 | 0.00 | 0.05 | 0.00 | 76 | 1020.8 |
| 20260901193008 | 16 | 271 | 0.0 | 0.0 | 0.00 | 0.05 | 0.00 | 74 | 1020.8 |
| 20260901191509 | 16 | 271 | 0.0 | 0.0 | 0.00 | 0.05 | 0.00 | 74 | 1020.7 |
| 20260901190146 | 17 | 0.0 | 0.0 | 0.00 | 0.05 | 0.00 | 71 | 1021.4 | |
| 20260901190009 | 16 | 271 | 0.0 | 0.0 | 0.00 | 0.05 | 0.00 | 72 | 1020.7 |
| 20260901184508 | 17 | 271 | 0.0 | 1.6 | 0.00 | 0.05 | 0.00 | 70 | 1020.6 |
| 20260901183006 | 18 | 271 | 0.0 | 0.0 | 0.00 | 0.05 | 0.00 | 66 | 1020.5 |
| 20260901181506 | 18 | 271 | 0.0 | 0.0 | 0.00 | 0.05 | 0.00 | 65 | 1020.4 |
| 20260901180156 | 19 | 0.0 | 0.0 | 0.00 | 0.05 | 0.00 | 64 | 1021.0 | |
| 20260901180018 | 18 | 271 | 0.0 | 0.0 | 0.00 | 0.05 | 0.00 | 64 | 1020.1 |
| 20260901174505 | 19 | 271 | 0.0 | 1.6 | 0.00 | 0.05 | 0.00 | 65 | 1020.0 |
| 20260901173004 | 19 | 269 | 0.0 | 3.2 | 0.00 | 0.05 | 0.00 | 65 | 1020.0 |
| 20260901171503 | 20 | 259 | 0.0 | 3.2 | 0.00 | 0.05 | 0.00 | 64 | 1020.0 |
| 20260901170023 | 20 | 0.0 | 1.6 | 0.00 | 0.05 | 0.00 | 65 | 1021.1 | |
| 20260901170008 | 20 | 184 | 0.0 | 3.2 | 0.00 | 0.05 | 0.00 | 64 | 1019.9 |
| 20260901164502 | 20 | 222 | 0.0 | 6.4 | 0.00 | 0.05 | 0.00 | 64 | 1020.1 |
| 20260901163007 | 20 | 213 | 0.0 | 4.8 | 0.00 | 0.05 | 0.00 | 62 | 1020.2 |
| 20260901161502 | 20 | 255 | 1.6 | 9.7 | 0.00 | 0.05 | 0.00 | 62 | 1020.3 |
| 20260901160109 | 21 | 248 | 1.6 | 3.2 | 0.00 | 0.05 | 0.00 | 61 | 1021.3 |
| 20260901160000 | 21 | 251 | 1.6 | 6.4 | 0.00 | 0.05 | 0.00 | 62 | 1020.1 |
| 20260901154607 | 21 | 222 | 0.0 | 3.2 | 0.00 | 0.05 | 0.00 | 62 | 1020.2 |
| 20260901153124 | 22 | 277 | 1.6 | 4.8 | 0.00 | 0.05 | 0.00 | 57 | 1020.1 |
| 20260901151559 | 22 | 265 | 0.0 | 6.4 | 0.00 | 0.05 | 0.00 | 59 | 1020.1 |
| 20260901150058 | 22 | 241 | 0.0 | 4.8 | 0.00 | 0.05 | 0.00 | 60 | 1020.1 |
| 20260901150040 | 23 | 225 | 1.6 | 4.8 | 0.00 | 0.05 | 0.00 | 57 | 1021.7 |
| 20260901144559 | 23 | 275 | 1.6 | 6.4 | 0.00 | 0.05 | 0.00 | 57 | 1020.2 |
| 20260901143058 | 23 | 294 | 1.6 | 8.0 | 0.00 | 0.05 | 0.00 | 60 | 1020.3 |
| 20260901141556 | 23 | 211 | 3.2 | 9.7 | 0.00 | 0.05 | 0.00 | 59 | 1020.4 |
| 20260901140111 | 23 | 270 | 1.6 | 4.8 | 0.00 | 0.05 | 0.00 | 57 | 1021.9 |
| 20260901140056 | 22 | 241 | 1.6 | 8.0 | 0.00 | 0.05 | 0.00 | 59 | 1020.5 |
| 20260901134555 | 23 | 204 | 4.8 | 14.5 | 0.00 | 0.05 | 0.00 | 58 | 1020.5 |
| 20260901133051 | 23 | 250 | 3.2 | 9.7 | 0.00 | 0.05 | 0.00 | 63 | 1020.5 |
| 20260901131600 | 22 | 254 | 1.6 | 6.4 | 0.00 | 0.05 | 0.00 | 60 | 1020.7 |
| 20260901130059 | 22 | 211 | 6.4 | 14.5 | 0.00 | 0.05 | 0.00 | 61 | 1020.8 |
| 20260901130033 | 22 | 270 | 1.6 | 8.0 | 0.00 | 0.05 | 0.00 | 61 | 1022.2 |
| 20260901124545 | 22 | 242 | 1.6 | 9.7 | 0.00 | 0.05 | 0.00 | 62 | 1021.0 |
| 20260901123044 | 21 | 277 | 0.0 | 4.8 | 0.00 | 0.05 | 0.00 | 64 | 1021.0 |
| 20260901121545 | 21 | 202 | 1.6 | 8.0 | 0.00 | 0.05 | 0.00 | 62 | 1021.0 |
| 20260901120039 | 21 | 241 | 1.6 | 11.3 | 0.00 | 0.05 | 0.00 | 65 | 1020.9 |
| 20260901120004 | 20 | 225 | 1.6 | 6.4 | 0.00 | 0.05 | 0.00 | 68 | 1022.2 |
| 20260901114538 | 20 | 245 | 1.6 | 9.7 | 0.00 | 0.05 | 0.00 | 67 | 1021.0 |
| 20260901113038 | 20 | 251 | 1.6 | 4.8 | 0.00 | 0.05 | 0.00 | 66 | 1021.1 |
| 20260901111538 | 21 | 215 | 0.0 | 11.3 | 0.00 | 0.05 | 0.00 | 66 | 1021.0 |
| 20260901110056 | 20 | 225 | 1.6 | 4.8 | 0.00 | 0.05 | 0.00 | 67 | 1022.3 |
| 20260901110035 | 21 | 303 | 0.0 | 8.0 | 0.00 | 0.05 | 0.00 | 66 | 1021.1 |
| 20260901104535 | 20 | 234 | 0.0 | 4.8 | 0.00 | 0.05 | 0.00 | 65 | 1021.0 |
| 20260901103033 | 20 | 249 | 1.6 | 6.4 | 0.00 | 0.05 | 0.00 | 64 | 1021.0 |
| 20260901101531 | 20 | 250 | 1.6 | 8.0 | 0.00 | 0.05 | 0.00 | 70 | 1021.0 |
| 20260901100027 | 19 | 225 | 0.0 | 19.3 | 0.00 | 0.05 | 0.00 | 73 | 1021.0 |
| 20260901100007 | 18 | 203 | 8.0 | 16.1 | 0.00 | 0.05 | 0.00 | 72 | 1022.1 |
| 20260901094524 | 18 | 275 | 1.6 | 8.0 | 0.00 | 0.05 | 0.00 | 72 | 1021.0 |
| 20260901093023 | 18 | 297 | 0.0 | 3.2 | 0.00 | 0.05 | 0.00 | 74 | 1021.1 |
| 20260901091522 | 18 | 355 | 1.6 | 4.8 | 0.00 | 0.05 | 0.00 | 74 | 1021.3 |
| 20260901090031 | 18 | 299 | 1.6 | 8.0 | 0.00 | 0.05 | 0.00 | 73 | 1021.2 |
| 20260901085940 | 18 | 0.0 | 1.6 | 0.00 | 0.05 | 0.00 | 75 | 1022.5 | |
| 20260901084519 | 18 | 245 | 1.6 | 6.4 | 0.00 | 0.05 | 0.00 | 78 | 1021.3 |
| 20260901083029 | 17 | 29 | 0.0 | 6.4 | 0.00 | 0.05 | 0.00 | 78 | 1021.1 |
| 20260901081516 | 17 | 216 | 0.0 | 8.0 | 0.00 | 0.05 | 0.00 | 79 | 1021.1 |
| 20260901080122 | 17 | 0.0 | 0.0 | 0.00 | 0.05 | 0.00 | 81 | 1022.1 | |
| 20260901080011 | 17 | 200 | 0.0 | 4.8 | 0.00 | 0.05 | 0.00 | 81 | 1021.0 |
| 20260901074516 | 16 | 200 | 0.0 | 3.2 | 0.00 | 0.05 | 0.00 | 82 | 1020.9 |
| 20260901073019 | 16 | 200 | 0.0 | 8.0 | 0.00 | 0.05 | 0.00 | 86 | 1021.0 |
| 20260901071503 | 16 | 177 | 0.0 | 4.8 | 0.00 | 0.05 | 0.00 | 90 | 1020.8 |
| 20260901070010 | 15 | 203 | 1.6 | 3.2 | 0.00 | 0.05 | 0.00 | 91 | 1021.8 |
| 20260901070002 | 15 | 198 | 0.0 | 4.8 | 0.00 | 0.05 | 0.00 | 91 | 1020.9 |
| 20260901063102 | 13 | 191 | 0.0 | 0.0 | 0.00 | 0.05 | 0.00 | 91 | 1021.0 |
| 20260901061610 | 13 | 191 | 0.0 | 3.2 | 0.00 | 0.05 | 0.00 | 91 | 1020.9 |
| 20260901060103 | 12 | 191 | 0.0 | 1.6 | 0.00 | 0.05 | 0.00 | 91 | 1020.8 |
| 20260901060045 | 13 | 0.0 | 0.0 | 0.00 | 0.05 | 0.00 | 90 | 1021.9 | |
| 20260901054559 | 12 | 191 | 0.0 | 0.0 | 0.00 | 0.08 | 0.00 | 90 | 1020.9 |
| 20260901053120 | 12 | 191 | 0.0 | 0.0 | 0.00 | 0.08 | 0.00 | 90 | 1020.8 |
| 20260901051555 | 12 | 191 | 0.0 | 0.0 | 0.00 | 0.08 | 0.00 | 90 | 1020.7 |
| 20260901050056 | 12 | 191 | 1.6 | 6.4 | 0.00 | 0.08 | 0.00 | 90 | 1020.6 |
| 20260901045913 | 12 | 0.0 | 0.0 | 0.00 | 0.08 | 0.00 | 90 | 1021.5 | |
| 20260901044550 | 12 | 191 | 0.0 | 0.0 | 0.00 | 0.23 | 0.00 | 90 | 1020.5 |
| 20260901043049 | 12 | 191 | 0.0 | 3.2 | 0.00 | 0.23 | 0.00 | 90 | 1020.5 |
| 20260901041547 | 12 | 191 | 0.0 | 3.2 | 0.00 | 0.23 | 0.00 | 89 | 1020.2 |
| 20260901040046 | 12 | 191 | 0.0 | 3.2 | 0.00 | 0.23 | 0.00 | 89 | 1020.1 |
| 20260901040005 | 12 | 0.0 | 1.6 | 0.00 | 0.25 | 0.00 | 88 | 1021.2 | |
| 20260901034543 | 12 | 191 | 0.0 | 1.6 | 0.00 | 0.71 | 0.00 | 88 | 1020.1 |
| 20260901033049 | 13 | 191 | 0.0 | 1.6 | 0.00 | 0.71 | 0.00 | 88 | 1019.9 |
| 20260901031640 | 13 | 191 | 0.0 | 1.6 | 0.00 | 0.71 | 0.00 | 88 | 1019.9 |
| 20260901030038 | 13 | 191 | 0.0 | 3.2 | 0.00 | 0.71 | 0.00 | 87 | 1020.0 |
| 20260901025916 | 13 | 0.0 | 0.0 | 0.00 | 0.71 | 0.00 | 87 | 1021.2 | |
| 20260901024537 | 13 | 191 | 0.0 | 4.8 | 0.00 | 0.71 | 0.00 | 87 | 1020.0 |
| 20260901023039 | 13 | 191 | 0.0 | 4.8 | 0.00 | 0.71 | 0.00 | 87 | 1019.7 |
| 20260901021533 | 14 | 175 | 0.0 | 4.8 | 0.00 | 0.71 | 0.00 | 87 | 1019.7 |
| 20260901020034 | 14 | 175 | 0.0 | 3.2 | 0.00 | 0.71 | 0.00 | 87 | 1019.5 |
| 20260901015852 | 14 | 158 | 1.6 | 3.2 | 0.00 | 0.71 | 0.00 | 87 | 1020.7 |
| 20260901014530 | 14 | 213 | 0.0 | 1.6 | 0.00 | 0.71 | 0.00 | 87 | 1019.5 |
| 20260901013032 | 14 | 213 | 0.0 | 1.6 | 0.00 | 0.71 | 0.00 | 86 | 1019.4 |
| 20260901011529 | 14 | 213 | 0.0 | 0.0 | 0.00 | 0.71 | 0.00 | 86 | 1019.4 |
| 20260901010036 | 14 | 213 | 0.0 | 0.0 | 0.00 | 0.71 | 0.00 | 86 | 1019.3 |
| 20260901005924 | 14 | 0.0 | 0.0 | 0.00 | 0.71 | 0.00 | 86 | 1020.7 | |
| 20260901004527 | 14 | 213 | 0.0 | 0.0 | 0.00 | 0.71 | 0.00 | 86 | 1019.3 |
| 20260901003027 | 14 | 213 | 0.0 | 0.0 | 0.00 | 0.71 | 0.00 | 86 | 1019.2 |
| 20260901001626 | 14 | 213 | 0.0 | 3.2 | 0.00 | 0.71 | 0.00 | 87 | 1019.2 |
| 20260901000025 | 14 | 213 | 0.0 | 3.2 | 0.00 | 0.71 | 0.00 | 86 | 1019.3 |
| 20260831235854 | 15 | 203 | 1.6 | 3.2 | 0.00 | 0.71 | 0.00 | 86 | 1020.5 |